{"data":{"norad_id":48426,"epoch":"2026-05-25T04:53:44.098368Z","epoch_age_seconds":67581,"freshness":"FRESH","line1":"1 48426U 21039D   26145.20398262  .00005499  00000+0  31662-3 0  9996","line2":"2 48426  34.9979 107.8331 0002631 101.5569 258.5438 15.11809495276743","mean_motion":15.11809495,"eccentricity":0.0002631,"inclination_deg":34.9979,"raan_deg":107.8331,"arg_perigee_deg":101.5569,"mean_anomaly_deg":258.5438,"bstar":0.00031662,"rev_number":27674,"period_min":95.250096309258,"perigee_km":528.86398056782,"apogee_km":532.4994009629,"semimajor_km":6908.8186907654,"source":"CELESTRAK","updated_at":"2026-05-25T13:37:56.818654Z"}}